Regional Weather Roundup
Issued by NWS Cleveland, OH

Home | Current Version | Previous Version | Text Only | Print | Product List | Glossary Off
Versions: 1 2 3 4 5 6 7 8 9 10 11 12 13 14 15 16 17 18 19 20 21 22 23 24 25 26 27 28 29 30 31 32 33 34 35 36 37 38 39 40 41 42 43 44 45 46 47 48 49 50

000
ASUS41 KCLE 031300
RWRCLE
OHIO REGIONAL WEATHER ROUNDUP
NATIONAL WEATHER SERVICE WILMINGTON, OH
900 AM EDT SUN MAY 03 2015

NOTE: "FAIR" INDICATES FEW OR NO CLOUDS BELOW 12,000 FEET WITH NO
SIGNIFICANT WEATHER AND/OR OBSTRUCTIONS TO VISIBILITY.

OHZ001>008-015>018-024>027-034-035-043-044-031400-
   NORTHWEST OHIO

CITY           SKY/WX    TMP DP  RH WIND       PRES   REMARKS
DEFIANCE       SUNNY     62  46  55 SW6       30.09R
FINDLAY        SUNNY     63  48  58 S5        30.09R
TOLEDO EXPRESS SUNNY     62  43  49 SW5       30.08R
TOLEDO EXEC    SUNNY     62  45  53 SW7       30.09R
LIMA           PTSUNNY   61  47  59 S7        30.10R
$$

OHZ009>014-019>023-028>033-038-089-031400-
   NORTHEAST OHIO

CITY           SKY/WX    TMP DP  RH WIND       PRES   REMARKS
CLE-HOPKINS    MOSUNNY   62  44  51 SW7       30.12R
CLE-LAKEFRONT  SUNNY     65  44  46 S8        30.08S
CUY CO. ARPT   SUNNY     66  46  48 SW12      30.10R
LORAIN-ELYRIA  SUNNY     61  46  57 SW6       30.10R
ASHTABULA      SUNNY     61  42  49 SW6       30.11R
AKRON-CANTON   MOSUNNY   62  43  49 SW6       30.12R
WOOSTER        NOT AVBL
MANSFIELD      SUNNY     64  45  49 S6        30.12R
YOUNGSTOWN     MOSUNNY   63  42  46 SW6       30.11S
$$

OHZ042-051>053-060>062-070>072-077>081-031400-
  SOUTHWEST OHIO

CITY           SKY/WX    TMP DP  RH WIND       PRES   REMARKS
CINC-COVINGTON PTSUNNY   63  50  62 S3        30.13R
CINC-LUNKEN    MOSUNNY   54  51  90 CALM      30.14S
HAMILTON       PTSUNNY   55  51  86 CALM      30.14R
DAYTON         NOT AVBL
WRIGHT-PAT AFB PTSUNNY   58  49  72 S2        30.13R
DAYTON GENERAL PTSUNNY   60  49  66 SE3       30.12R
WILMINGTON     PTSUNNY   59  50  72 S3        30.14R
$$

OHZ036-037-039>041-045>050-054>059-063>069-073>076-082>088-031400-
  CENTRAL AND SOUTHEAST OHIO

CITY           SKY/WX    TMP DP  RH WIND       PRES   REMARKS
COLUMBUS       PTSUNNY   58  45  62 S5        30.13R
OSU AIRPORT    PTSUNNY   60  46  59 CALM      30.13R
BOLTON FIELD   SUNNY     57  50  77 CALM      30.14R
RICKENBACK AFB NOT AVBL
NEWARK         MOSUNNY   59  48  67 CALM      30.13R
MARION         MOSUNNY   59  47  64 S6        30.12R
LANCASTER      PTSUNNY   60  49  66 CALM      30.14R
ZANESVILLE     MOSUNNY   55  46  71 CALM      30.14R
NEW PHILLY     MOSUNNY   57  45  64 SE3       30.14R
$$


USA.gov is the U.S. government's official web portal to all federal, state and local government web resources and services.